DC1NF-7 Weather Reports


Display with metric or nautical units.
time (UTC)temp
F
wind
direction
speed
MPH
gust
MPH
rain 1hr
in
rain 24hr
in
rain mn
in
humidity
%
barometer
mb
20260509220524 58 62 3.0 4.0 0.00 0.00 0.00 70 1015.7
20260509215520 58 64 3.0 6.0 0.00 0.00 0.00 69 1015.7
20260509214515 58 77 3.0 4.0 0.00 0.00 0.00 70 1015.6
20260509213613 58 74 2.0 4.0 0.00 0.00 0.00 69 1015.7
20260509212617 59 60 3.0 6.0 0.00 0.00 0.00 68 1015.6
20260509211606 60 79 2.0 4.0 0.00 0.00 0.00 66 1015.7
20260509210602 60 73 1.0 2.0 0.00 0.00 0.00 66 1015.8
20260509205601 61 75 2.0 4.0 0.00 0.00 0.00 65 1015.9
20260509204554 61 91 2.0 4.0 0.00 0.00 0.00 65 1016.0
20260509203550 60 68 3.0 4.0 0.00 0.00 0.00 66 1015.9
20260509202548 61 75 3.0 4.0 0.00 0.00 0.00 66 1015.9
20260509201544 61 58 3.0 4.0 0.00 0.00 0.00 66 1016.0
20260509200541 61 68 3.0 4.0 0.00 0.00 0.00 65 1016.0
20260509195537 62 79 2.0 4.0 0.00 0.00 0.00 64 1015.9
20260509194534 62 62 1.0 2.0 0.00 0.00 0.00 63 1015.7
20260509193533 62 74 2.0 4.0 0.00 0.00 0.00 63 1015.7
20260509192529 62 69 3.0 4.0 0.00 0.00 0.00 64 1015.7
20260509191525 62 76 3.0 6.0 0.00 0.00 0.00 64 1015.6
20260509190521 63 69 2.0 4.0 0.00 0.00 0.00 64 1015.5
20260509185519 63 90 2.0 4.0 0.00 0.00 0.00 62 1015.5
20260509184613 64 71 2.0 4.0 0.00 0.00 0.00 61 1015.4
20260509183608 65 71 2.0 4.0 0.00 0.00 0.00 60 1015.4
20260509182604 65 71 3.0 4.0 0.00 0.00 0.00 59 1015.5
20260509181600 66 73 3.0 6.0 0.00 0.00 0.00 58 1015.5
20260509180556 66 74 3.0 6.0 0.00 0.00 0.00 56 1015.4
20260509175551 67 85 3.0 4.0 0.00 0.00 0.00 55 1015.5
20260509174552 67 68 3.0 4.0 0.00 0.00 0.00 54 1015.4
20260509173547 68 75 3.0 6.0 0.00 0.00 0.00 52 1015.3
20260509172544 69 76 2.0 6.0 0.00 0.00 0.00 51 1015.3
20260509171537 69 91 2.0 6.0 0.00 0.00 0.00 48 1015.5
20260509170535 70 86 2.0 4.0 0.00 0.00 0.00 47 1015.5
20260509165532 71 72 2.0 4.0 0.00 0.00 0.00 46 1015.5
20260509164528 70 88 2.0 4.0 0.00 0.00 0.00 46 1015.5
20260509163522 71 78 1.0 4.0 0.00 0.00 0.00 45 1015.5
20260509162521 70 93 2.0 4.0 0.00 0.00 0.00 45 1015.4
20260509161515 70 83 2.0 4.0 0.00 0.00 0.00 45 1015.6
20260509160612 70 93 2.0 6.0 0.00 0.00 0.00 45 1015.7
20260509155612 71 116 1.0 2.0 0.00 0.00 0.00 44 1015.8
20260509154609 74 90 0.0 2.0 0.00 0.00 0.00 41 1015.7
20260509153602 72 301 1.0 2.0 0.00 0.00 0.00 43 1015.9
20260509152558 72 147 1.0 4.0 0.00 0.00 0.00 45 1016.0
20260509151553 70 66 2.0 4.0 0.00 0.00 0.00 47 1016.0
20260509150550 70 85 4.0 8.0 0.00 0.00 0.00 47 1016.1
20260509145548 73 90 3.0 9.0 0.00 0.00 0.00 45 1016.1
20260509144543 72 90 1.0 4.0 0.00 0.00 0.00 43 1016.3
20260509143539 72 111 1.0 4.0 0.00 0.00 0.00 44 1016.4
20260509142535 72 80 3.0 8.0 0.00 0.00 0.00 45 1016.5
20260509141531 71 82 2.0 7.0 0.00 0.00 0.00 44 1016.6
20260509140530 73 94 2.0 7.0 0.00 0.00 0.00 45 1016.6
20260509135522 71 222 2.0 4.0 0.00 0.00 0.00 44 1016.7
20260509134518 71 237 2.0 4.0 0.00 0.00 0.00 45 1016.9
20260509133618 71 211 3.0 6.0 0.00 0.00 0.00 45 1017.0
20260509132611 70 106 2.0 4.0 0.00 0.00 0.00 47 1017.2
20260509131609 71 106 1.0 4.0 0.00 0.00 0.00 45 1017.4
20260509130607 71 91 3.0 6.0 0.00 0.00 0.00 46 1017.5
20260509125600 70 121 2.0 7.0 0.00 0.00 0.00 48 1017.6
20260509124556 69 78 3.0 7.0 0.00 0.00 0.00 50 1017.7
20260509123554 70 169 2.0 4.0 0.00 0.00 0.00 47 1017.7
20260509122552 70 81 1.0 2.0 0.00 0.00 0.00 47 1017.8
20260509121550 69 74 3.0 6.0 0.00 0.00 0.00 50 1018.1
20260509120546 67 75 2.0 4.0 0.00 0.00 0.00 51 1018.1
20260509115540 70 100 1.0 4.0 0.00 0.00 0.00 48 1018.2
20260509114537 68 142 2.0 4.0 0.00 0.00 0.00 50 1018.1
20260509113534 66 119 3.0 7.0 0.00 0.00 0.00 54 1018.2
20260509112531 66 74 2.0 4.0 0.00 0.00 0.00 52 1018.3
20260509111527 67 79 2.0 7.0 0.00 0.00 0.00 50 1018.5
20260509110521 67 210 1.0 4.0 0.00 0.00 0.00 52 1018.6
20260509105518 67 68 1.0 4.0 0.00 0.00 0.00 51 1018.8
20260509104618 64 89 4.0 6.0 0.00 0.00 0.00 56 1018.8
20260509103614 65 59 1.0 4.0 0.00 0.00 0.00 56 1019.0
20260509102610 67 71 1.0 4.0 0.00 0.00 0.00 54 1019.0
20260509101602 64 103 1.0 4.0 0.00 0.00 0.00 58 1018.9
20260509100558 64 73 2.0 7.0 0.00 0.00 0.00 59 1019.0
20260509095557 64 228 1.0 4.0 0.00 0.00 0.00 61 1019.1
20260509094549 63 130 0.0 4.0 0.00 0.00 0.00 62 1019.1
20260509093546 63 228 1.0 4.0 0.00 0.00 0.00 64 1019.2
20260509092546 61 203 2.0 4.0 0.00 0.00 0.00 66 1019.1
20260509091544 61 88 2.0 4.0 0.00 0.00 0.00 66 1019.3
20260509090536 62 166 1.0 4.0 0.00 0.00 0.00 66 1019.3
20260509085535 61 199 0.0 4.0 0.00 0.00 0.00 66 1019.3
20260509084528 59 84 1.0 2.0 0.00 0.00 0.00 69 1019.4
20260509083527 59 84 2.0 4.0 0.00 0.00 0.00 70 1019.5
20260509082521 58 210 1.0 2.0 0.00 0.00 0.00 72 1019.5
20260509081518 57 63 1.0 2.0 0.00 0.00 0.00 72 1019.6
20260509080515 57 96 1.0 4.0 0.00 0.00 0.00 72 1019.6
20260509075612 57 94 1.0 4.0 0.00 0.00 0.00 73 1019.6
20260509074617 57 180 0.0 2.0 0.00 0.00 0.00 72 1019.6
20260509073605 56 101 1.0 4.0 0.00 0.00 0.00 73 1019.6
20260509072603 55 92 1.0 2.0 0.00 0.00 0.00 75 1019.7
20260509071556 53 97 1.0 4.0 0.00 0.00 0.00 79 1019.6
20260509070556 53 62 1.0 4.0 0.00 0.00 0.00 78 1019.8
20260509065549 52 110 1.0 4.0 0.00 0.00 0.00 83 1019.8
20260509064550 51 0.0 2.0 0.00 0.00 0.00 85 1019.7
20260509063543 51 95 1.0 4.0 0.00 0.00 0.00 83 1019.7
20260509062538 49 83 1.0 2.0 0.00 0.00 0.00 87 1019.7
20260509061534 49 90 1.0 2.0 0.00 0.00 0.00 89 1019.7
20260509060530 48 180 0.0 2.0 0.00 0.00 0.00 91 1019.7
20260509055526 47 0.0 0.0 0.00 0.00 0.00 92 1019.6
20260509054521 46 87 1.0 2.0 0.00 0.00 0.00 92 1019.6
20260509053517 46 0.0 0.0 0.00 0.00 0.00 92 1019.5
20260509052615 46 0.0 0.0 0.00 0.00 0.00 93 1019.2
20260509051614 45 0.0 0.0 0.00 0.00 0.00 94 1019.2
20260509050613 44 0.0 0.0 0.00 0.00 0.00 94 1019.2
20260509045603 45 0.0 0.0 0.00 0.00 0.00 93 1019.0
20260509044602 45 0.0 2.0 0.00 0.00 0.00 93 1019.0
20260509043556 44 68 0.0 2.0 0.00 0.00 0.00 95 1018.8
20260509042557 43 0.0 0.0 0.00 0.00 0.00 95 1018.8
20260509041550 43 0.0 0.0 0.00 0.00 0.00 95 1018.9
20260509040547 43 0.0 0.0 0.00 0.00 0.00 95 1019.0
20260509035543 43 0.0 0.0 0.00 0.00 0.00 95 1018.9
20260509034540 43 0.0 0.0 0.00 0.00 0.00 95 1019.0
20260509033537 43 0.0 0.0 0.00 0.00 0.00 95 1019.0
20260509032535 44 0.0 0.0 0.00 0.00 0.00 95 1019.0
20260509031527 44 0.0 0.0 0.00 0.00 0.00 95 1019.0
20260509030524 44 0.0 0.0 0.00 0.00 0.00 95 1018.8
20260509025521 44 0.0 0.0 0.00 0.00 0.00 94 1018.9
20260509024521 44 0.0 0.0 0.00 0.00 0.00 94 1019.0
20260509023614 44 0.0 0.0 0.00 0.00 0.00 94 1019.0
20260509022610 44 0.0 0.0 0.00 0.00 0.00 93 1018.8
20260509021605 44 0.0 0.0 0.00 0.00 0.00 93 1019.0
20260509020601 45 0.0 0.0 0.00 0.00 0.00 93 1018.9
20260509015600 45 0.0 2.0 0.00 0.00 0.00 93 1018.9
20260509014556 45 81 1.0 4.0 0.00 0.00 0.00 93 1018.7
20260509013549 45 124 0.0 2.0 0.00 0.00 0.00 92 1018.8
20260509012547 45 72 1.0 4.0 0.00 0.00 0.00 92 1018.8
20260509011543 46 124 0.0 2.0 0.00 0.00 0.00 91 1018.9
20260509010542 46 88 1.0 4.0 0.00 0.00 0.00 91 1019.0
20260509005535 46 75 1.0 7.0 0.00 0.00 0.00 91 1018.9
20260509004530 46 86 0.0 2.0 0.00 0.00 0.00 91 1018.9
20260509003528 46 95 1.0 4.0 0.00 0.00 0.00 91 1018.9
20260509002524 46 83 0.0 4.0 0.00 0.00 0.00 91 1019.0
20260509001522 46 0.0 2.0 0.00 0.00 0.00 91 1019.0
20260509000518 46 0.0 0.0 0.00 0.00 0.00 91 1018.9
20260508235619 46 0.0 2.0 0.00 0.00 0.00 90 1018.9
20260508234615 47 84 1.0 2.0 0.00 0.00 0.00 90 1019.0
20260508233611 47 76 2.0 4.0 0.00 0.00 0.00 90 1019.0
20260508232608 47 68 2.0 2.0 0.00 0.00 0.00 90 1019.1
20260508231559 47 79 0.0 2.0 0.00 0.00 0.00 90 1019.2
20260508230559 47 0.0 2.0 0.00 0.00 0.00 89 1019.3
20260508225556 47 0.0 2.0 0.00 0.00 0.00 88 1019.2
20260508224553 48 0.0 0.0 0.00 0.00 0.00 88 1019.2
20260508223546 48 90 0.0 2.0 0.00 0.00 0.00 87 1019.2
20260508222541 48 0.0 0.0 0.00 0.00 0.00 86 1019.3
20260508221537 49 90 1.0 4.0 0.00 0.00 0.00 85 1019.2